EW7833 Weather Reports


Display with metric or nautical units.
time (UTC)temp
F
wind
direction
speed
MPH
gust
MPH
rain 1hr
in
rain 24hr
in
rain mn
in
humidity
%
barometer
mb
20260901063010 70 248 1.0 5.0 0.00 0.33 0.00 88 1010.7
20260901061509 70 255 1.0 2.0 0.00 0.33 0.00 89 1010.6
20260901060007 70 245 1.0 2.0 0.00 0.33 0.00 89 1010.7
20260901054506 71 249 1.0 3.0 0.00 0.33 0.00 90 1010.6
20260901053006 71 245 0.0 3.0 0.00 0.33 0.00 90 1010.7
20260901051504 71 240 0.0 3.0 0.00 0.33 0.00 91 1010.5
20260901050003 71 257 1.0 5.0 0.00 0.33 0.00 91 1010.5
20260901044502 71 254 1.0 7.0 0.00 0.33 0.00 91 1010.6
20260901043005 71 258 1.0 4.0 0.00 0.33 0.00 91 1010.7
20260901041600 71 262 1.0 4.0 0.00 0.33 0.00 91 1010.7
20260901034559 71 258 1.0 5.0 0.00 0.33 0.33 92 1010.7
20260901033058 71 249 1.0 3.0 0.00 0.33 0.33 92 1010.7
20260901031557 71 254 1.0 2.0 0.00 0.33 0.33 92 1010.4
20260901030057 72 253 0.0 2.0 0.00 0.33 0.33 91 1010.5
20260901024602 72 252 0.0 3.0 0.00 0.33 0.33 91 1010.5
20260901023057 72 248 0.0 2.0 0.00 0.33 0.33 91 1010.6
20260901021557 72 244 0.0 2.0 0.00 0.33 0.33 91 1010.6
20260901020054 73 254 1.0 3.0 0.00 0.33 0.33 90 1010.8
20260901014553 73 250 0.0 1.0 0.00 0.33 0.33 90 1010.5
20260901013103 73 244 0.0 1.0 0.00 0.33 0.33 90 1010.5
20260901011553 73 253 0.0 2.0 0.00 0.33 0.33 90 1010.4
20260901010055 73 249 0.0 4.0 0.00 0.33 0.33 89 1010.3
20260901004558 74 246 0.0 2.0 0.00 0.33 0.33 88 1010.1
20260901003058 75 249 0.0 2.0 0.00 0.33 0.33 85 1010.1
20260901001550 75 252 1.0 5.0 0.00 0.33 0.33 85 1010.2
20260901000051 75 229 1.0 4.0 0.00 0.33 0.33 85 1010.0
20260831234548 75 250 1.0 5.0 0.00 0.33 0.33 85 1010.0
20260831233048 75 249 1.0 5.0 0.00 0.33 0.33 86 1009.7
20260831231556 76 249 1.0 4.0 0.00 0.33 0.33 85 1009.6
20260831230049 78 229 0.0 1.0 0.00 0.33 0.33 88 1009.5
20260831224545 78 113 0.0 0.0 0.00 0.33 0.33 87 1009.3
20260831223045 79 113 0.0 1.0 0.00 0.33 0.33 86 1009.3
20260831221545 79 122 0.0 1.0 0.00 0.33 0.33 87 1009.4
20260831220043 78 113 0.0 0.0 0.00 0.33 0.33 87 1009.3
20260831214543 78 112 0.0 1.0 0.00 0.35 0.33 87 1009.3
20260831213046 78 115 0.0 0.0 0.00 0.35 0.33 87 1009.4
20260831211543 79 115 0.0 0.0 0.00 0.35 0.33 87 1009.4
20260831210039 79 139 0.0 0.0 0.00 0.35 0.33 86 1009.5
20260831204539 80 139 0.0 1.0 0.00 0.35 0.33 84 1009.5
20260831203040 81 239 0.0 0.0 0.00 0.35 0.33 82 1009.6
20260831201541 81 239 0.0 0.0 0.00 0.35 0.33 78 1009.8
20260831200036 81 239 0.0 0.0 0.00 0.35 0.33 77 1009.9
20260831194608 82 239 0.0 1.0 0.00 0.35 0.33 79 1010.1
20260831193032 81 239 0.0 0.0 0.00 0.35 0.33 76 1010.2
20260831191529 81 239 0.0 0.0 0.00 0.35 0.33 80 1010.4
20260831190034 82 111 0.0 0.0 0.00 0.35 0.33 82 1010.5
20260831184529 81 110 0.0 1.0 0.00 0.35 0.33 80 1010.5
20260831183026 82 111 0.0 1.0 0.00 0.35 0.33 80 1010.6
20260831181524 81 115 0.0 2.0 0.00 0.35 0.33 81 1010.6
20260831180022 81 95 0.0 1.0 0.00 0.35 0.33 80 1010.8
20260831174532 80 162 0.0 0.0 0.00 0.35 0.33 82 1011.0
20260831173016 79 99 0.0 1.0 0.00 0.35 0.33 83 1011.1
20260831171518 79 105 0.0 2.0 0.00 0.35 0.33 84 1011.1
20260831170011 78 134 0.0 3.0 0.00 0.35 0.33 86 1011.3
20260831164506 77 126 0.0 0.0 0.00 0.35 0.33 89 1011.5
20260831163003 75 96 0.0 1.0 0.00 0.35 0.33 91 1011.9
20260831161559 74 247 0.0 0.0 0.00 0.35 0.33 89 1012.1
20260831160056 73 238 0.0 1.0 0.00 0.35 0.33 86 1012.2
20260831154554 72 255 0.0 0.0 0.00 0.35 0.33 84 1012.6
20260831153053 71 55 0.0 0.0 0.00 0.35 0.33 82 1012.9
20260831151550 70 70 0.0 0.0 0.02 0.35 0.33 82 1012.5
20260831150044 69 70 0.0 0.0 0.06 0.35 0.33 83 1012.8
20260831144600 69 72 0.0 0.0 0.09 0.35 0.33 83 1013.0
20260831143042 69 72 0.0 0.0 0.13 0.35 0.33 83 1012.8
20260831141541 68 72 0.0 0.0 0.17 0.33 0.31 83 1012.9
20260831140040 68 73 0.0 0.0 0.17 0.28 0.27 82 1013.6
20260831134538 68 87 0.0 0.0 0.18 0.26 0.24 83 1013.2
20260831133038 67 96 0.0 0.0 0.15 0.22 0.20 84 1013.4
20260831131536 67 97 0.0 0.0 0.10 0.16 0.14 84 1013.8
20260831130034 67 101 0.0 0.0 0.07 0.12 0.10 83 1013.6
20260831124537 67 101 0.0 0.0 0.03 0.08 0.06 85 1013.4
20260831123035 67 101 0.0 0.0 0.02 0.07 0.05 85 1012.8
20260831121541 67 101 0.0 0.0 0.01 0.06 0.04 85 1012.7
20260831120036 67 101 0.0 0.0 0.00 0.05 0.03 85 1012.3
20260831114546 67 101 0.0 0.0 0.00 0.05 0.03 85 1012.3
20260831113028 67 101 0.0 0.0 0.02 0.05 0.03 85 1012.3
20260831111529 67 101 0.0 0.0 0.03 0.05 0.03 85 1011.9
20260831110028 67 101 0.0 1.0 0.03 0.05 0.03 85 1011.7
20260831104532 67 105 0.0 0.0 0.03 0.05 0.03 85 1012.1
20260831103022 67 114 0.0 1.0 0.01 0.03 0.01 85 1012.7
20260831101520 67 114 0.0 0.0 0.00 0.02 0.00 85 1013.3
20260831100019 67 114 0.0 0.0 0.00 0.02 0.00 85 1013.5
20260831094519 67 114 0.0 0.0 0.00 0.02 0.00 85 1014.1
20260831093021 67 114 0.0 0.0 0.00 0.02 0.00 85 1014.1
20260831091518 67 114 0.0 0.0 0.00 0.02 0.00 85 1013.9
20260831090017 67 114 0.0 0.0 0.00 0.02 0.00 86 1014.0
20260831084516 67 114 0.0 0.0 0.00 0.02 0.00 86 1013.7
20260831083016 67 114 0.0 0.0 0.00 0.02 0.00 86 1013.9
20260831081515 67 114 0.0 0.0 0.00 0.02 0.00 86 1014.2
20260831080014 67 114 0.0 0.0 0.00 0.02 0.00 86 1014.1
20260831074514 67 114 0.0 0.0 0.00 0.02 0.00 86 1014.1
20260831073017 67 114 0.0 0.0 0.00 0.02 0.00 86 1013.8
20260831071518 67 114 0.0 0.0 0.00 0.02 0.00 86 1013.2
20260831070014 67 114 0.0 0.0 0.00 0.02 0.00 86 1013.2
20260831064514 67 114 0.0 0.0 0.00 0.02 0.00 86 1013.6